Location: Mapua
(41.2500°S, 173.1000°E)
Time: 15:28:55
(UTC+12:00)

OTV 5 (USA 277) - Visible Passes

Search period start: 22 August 2018 00:00
Search period end: 01 September 2018 00:00
Orbit: 316 x 334 km, 54.5° (Epoch: 20 August)

Date Brightness Start Highest point End Pass type
(mag) Time Alt. Az. Time Alt. Az. Time Alt. Az.
24 Aug ? 06:02:51 10° N 06:05:10 24° NE 06:07:31 10° ESE visible
25 Aug ? 06:19:34 10° NW 06:22:20 81° NE 06:25:10 10° SE visible
26 Aug ? 05:05:09 17° NE 05:05:24 17° NE 05:07:18 10° E visible
27 Aug ? 05:22:29 52° NE 05:22:30 52° NE 05:25:16 10° ESE visible
28 Aug ? 05:39:38 46° SW 05:39:48 46° SW 05:42:33 10° SE visible
29 Aug ? 05:56:37 19° SW 05:57:17 20° SSW 05:59:30 10° SSE visible
30 Aug ? 04:42:27 12° SE 04:42:27 12° SE 04:42:44 10° SE visible
30 Aug ? 06:13:52 10° SW 06:14:55 11° SSW 06:15:58 10° S visible
31 Aug ? 04:59:14 14° SSE 04:59:14 14° SSE 04:59:47 10° SSE visible
